Location: Spondin
(51.8528°N, 111.6118°W)
Time: 17:56:28
(UTC+00:00)

Vanguard 2 Rocket - Pass Details

Date: 03 June 2022
Orbit: 553 x 3323 km, 32.9° (Epoch: 02 July)

Event Time Altitude Azimuth Distance (km) Brightness Sun altitude
Rises 21:14:37 0° 256° (WSW) 7,221 12.0 53.7°
Reaches altitude 10° 21:19:55 10° 249° (WSW) 6,275 11.9 53.1°
Maximum altitude 21:37:17 39° 191° (S) 3,987 11.3 51.1°
Drops below altitude 10° 21:50:47 10° 130° (SE) 4,923 10.6 49.3°
Sets 21:54:20 0° 123° (ESE) 5,585 10.8 48.9°
